"Pseudo-MPEC" for A1182qm

Created 2024 Jul 13 9:22:03 UT using Find_Orb

Click here for an explanation of pseudo-MPECs

 
 Astrometry: 
     A1182qm* C2024 07 03)kkWAstrometry/sCe(tWN3EBWredacted;$DT6gHKr7WFHfP91aT08
     A1182qm  C2024 07 03H**h*2;;O`],?[:7q[_vTclickQSTys^mhere*EohP7MShW\)nhHT08
     A1182qm  C2024 07 03)]_!Dwru+'OXev=for1E+;]X16GCs*7;RAxkvqiMC?2JHk6D.!imT08
     A1182qm  C2024 07 03pLexplanationL'=MJ6W+c7^T3Uw:xMId9bn,sd2ykOp?72KI/.6F52

Station data:
(F52) Pan-STARRS 2, Haleakala  (N20.707382 W156.255910)  US/Hawaii.
   Observers J. Bulger, T. Dukes, T. Lowe, A. Schultz, M. Willman. Measurers
   K. Chambers, S. Chastel, T. de Boer, L. Denneau, J. Fairlamb, H.
   Flewelling, M. Huber, C.-C. Lin, E. Magnier, Y. Ramanjooloo, R. Wainscoat,
   R. Weryk. 1.8-m Ritchey-Chrétien + CCD.
(T08) ATLAS-MLO, Mauna Loa  (N19.536150 W155.576050)  US/Hawaii.  Observers
   L. Denneau, A. Heinze, H. Weiland, J. Tonry, H. Flewelling, A.
   Fitzsimmons, D. Young, B. Stalder. Measurers L. Denneau, A. Heinze, J.
   Tonry. 0.5-m f/2.0 Schmidt + CCD.

Orbital elements:  A1182qm
   Perigee 2024 Jul 2.88635 +/- 0.00956 TT = 21:16:20 (JD 2460494.38635)
Epoch 2024 Jul  3.0 TT = JDT 2460494.5                           AutoNEOCP
M  31.87468109 +/- 2.5              (J2000 equator)
n 280.45567630 +/- 3.6              Peri.  211.66520 +/- 0.9
a 49891.5905 +/- 427                Node   241.53371 +/- 0.08
e   0.5739940 +/- 0.00564           Incl.    9.41481 +/- 0.027
P1848.39m/1.284d           H 32.73  G  0.15   U 13.6
q 21254.1155 +/- 437    Q 78529.0656 +/- 491
From 4 observations 2024 July 3 (79.9 min); mean residual 2".17
Residuals in arcseconds: 
240703 T08  3.4+  .82+    240703 T08  1.4+  .33+    
240703 T08  4.7-  1.1-    240703 F52  .14-  .03-    

Ephemerides (geocentric):
Date (UTC) HH   RA             Dec           delta  r     elong  mag " sig PA
---- --------  ------------   ------------  ------ ------ -----  --- --------
2024 07 13 09  14 48 42.956   -03 00 31.69   52088 1.0166 109.1 18.0 303'  81
2024 07 13 10  15 20 13.246   -01 45 48.01   57323 1.0167 115.8 18.0 247'  81
2024 07 13 11  15 46 42.117   -00 41 18.31   61905 1.0167 121.4 18.0 208'  81
2024 07 13 12  16 09 44.510   +00 15 18.67   65868 1.0168 126.1 18.0 182'  81
2024 07 13 13  16 30 20.691   +01 05 49.07   69245 1.0168 130.1 18.0 9767  81
2024 07 13 14  16 49 11.267   +01 51 31.74   72066 1.0169 133.7 17.9 8961  81
2024 07 13 15  17 06 45.111   +02 33 25.77   74354 1.0169 136.9 17.9 8403  81
2024 07 13 16  17 23 23.824   +03 12 16.14   76128 1.0169 139.8 17.9 8041  81
2024 07 13 17  17 39 24.414   +03 48 37.61   77402 1.0169 142.3 17.9 7842  81
2024 07 13 18  17 55 01.007   +04 22 57.44   78187 1.0169 144.6 17.8 7786  82
2024 07 13 19  18 10 26.027   +04 55 37.22   78488 1.0169 146.5 17.8 7866  82
2024 07 13 20  18 25 51.089   +05 26 54.04   78308 1.0170 148.2 17.7 8081  82
2024 07 13 21  18 41 27.761   +05 57 01.22   77646 1.0170 149.6 17.7 8441  83
2024 07 13 22  18 57 28.317   +06 26 08.60   76496 1.0169 150.5 17.6 8963  83
2024 07 13 23  19 14 06.591   +06 54 22.29   74849 1.0169 151.0 17.5 9681  83
2024 07 14 00  19 31 39.084   +07 21 43.85   72693 1.0169 150.9 17.5 177'  84
2024 07 14 01  19 50 26.525   +07 48 08.28   70009 1.0169 150.2 17.4 199'  85
2024 07 14 02  20 10 56.276   +08 13 20.16   66775 1.0169 148.8 17.4 228'  85
2024 07 14 03  20 33 46.242   +08 36 45.88   62963 1.0168 146.4 17.3 267'  86
2024 07 14 04  20 59 51.627   +08 57 17.76   58541 1.0168 142.9 17.2 323'  87
2024 07 14 05  21 30 37.374   +09 12 39.78   53475 1.0168 138.0 17.2 406'  88
2024 07 14 06  22 08 22.593   +09 18 08.11   47736 1.0167 131.3 17.1 536'  90
2024 07 14 07  22 57 11.949   +09 03 12.42   41329 1.0166 121.7 17.1 755'  92
2024 07 14 08  00 04 49.019   +08 02 48.15   34377 1.0166 107.6 17.1  19d  95
2024 07 14 09  01 46 23.617   +05 16 04.00   27406 1.0165  85.5 17.5  31d  98
2024 07 14 10  04 25 08.445   -00 53 25.37   22177 1.0164  51.6 19??  41d  99
2024 07 14 11  07 49 11.611   -07 46 34.33   21995 1.0163  29.6 22??  33d  95
2024 07 14 12  10 35 24.170   -09 12 55.03   27023 1.0164  53.7 19??  21d  89
2024 07 14 13  12 20 39.510   -07 42 18.74   33959 1.0164  75.6 18.4 793'  85
2024 07 14 14  13 29 12.278   -05 49 39.60   40935 1.0165  90.5 18.1 548'  83
2024 07 14 15  14 17 58.653   -04 09 27.37   47380 1.0165 101.2 18.0 407'  82
2024 07 14 16  14 55 23.301   -02 44 25.05   53160 1.0166 109.3 18.0 321'  81
2024 07 14 17  15 25 44.960   -01 31 55.84   58265 1.0166 115.8 18.0 264'  81
2024 07 14 18  15 51 27.514   -00 29 10.47   62725 1.0167 121.2 18.0 225'  81
2024 07 14 19  16 13 57.422   +00 26 05.21   66572 1.0167 125.8 18.0 198'  81
2024 07 14 20  16 34 10.242   +01 15 31.41   69839 1.0168 129.8 18.0 179'  81
2024 07 14 21  16 52 43.815   +02 00 22.64   72555 1.0168 133.4 18.0 9907  81
2024 07 14 22  17 10 05.317   +02 41 34.87   74742 1.0168 136.5 17.9 9341  81
2024 07 14 23  17 26 35.282   +03 19 50.83   76418 1.0168 139.4 17.9 8979  81
2024 07 15 00  17 42 30.039   +03 55 43.63   77597 1.0169 142.0 17.9 8789  82
2024 07 15 01  17 58 03.301   +04 29 39.31   78288 1.0169 144.3 17.8 8752  82
2024 07 15 02  18 13 27.265   +05 01 58.48   78496 1.0169 146.3 17.8 8862  82
2024 07 15 03  18 28 53.476   +05 32 57.46   78224 1.0169 148.0 17.7 9121  82
2024 07 15 04  18 44 33.575   +06 02 48.87   77468 1.0169 149.4 17.7 9540  83
2024 07 15 05  19 00 40.060   +06 31 41.83   76223 1.0169 150.5 17.6 169'  83
2024 07 15 06  19 17 27.179   +06 59 41.66   74479 1.0169 151.0 17.5 183'  84
2024 07 15 07  19 35 12.101   +07 26 48.82   72222 1.0169 151.1 17.5 201'  84
2024 07 15 08  19 54 16.610   +07 52 56.67   69433 1.0168 150.4 17.4 226'  85